Regional Weather Roundup
Issued by NWS Charleston, WV

Home | Current Version | Previous Version | Text Only | Print | Product List | Glossary On
Versions: 1 2 3 4 5 6 7 8 9 10 11 12 13 14 15 16 17 18 19 20 21 22 23 24 25 26 27 28 29 30 31 32 33 34 35 36 37 38 39 40 41 42 43 44 45 46 47 48 49 50
000
ASUS41 KRLX 191810
RWRRLX
West Virginia Regional Weather Roundup
National Weather Service Charleston WV
200 PM EDT THU APR 19 2018

Note: "fair" indicates few or no clouds below 12,000 feet with no
significant weather and/or obstructions to visibility.

WVZ003-191900-
Northern Panhandle of West Virginia

CITY           SKY/WX    TMP DP  RH WIND       PRES   REMARKS
WHEELING       CLOUDY    37  28  70 NW9       30.09R
$$

WVZ009-191900-
Northwest West Virginia

CITY           SKY/WX    TMP DP  RH WIND       PRES   REMARKS
PARKERSBURG    CLOUDY    42  28  57 NW15      30.18R
$$

WVZ006-191900-
Western West Virginia

CITY           SKY/WX    TMP DP  RH WIND       PRES   REMARKS
HUNTINGTON     CLOUDY    45  29  53 NW12      30.19R
$$

WVZ015-191900-
West Central West Virginia

CITY           SKY/WX    TMP DP  RH WIND       PRES   REMARKS
CHARLESTON     PTSUNNY   43  31  62 NW17G25   30.15R
$$

WVZ022-031-191900-
North Central West Virginia

CITY           SKY/WX    TMP DP  RH WIND       PRES   REMARKS
CLARKSBURG     LGT RAIN  42  33  70 NW16G29   30.07R
MORGANTOWN     CLOUDY    40  29  64 NW9G17    30.08R
$$

WVZ025-035-042-045-191900-
Southern West Virginia

CITY           SKY/WX    TMP DP  RH WIND       PRES   REMARKS
BECKLEY        CLOUDY    35  29  78 NW18G30   30.08R
LOGAN          CLOUDY    39  30  70 VRB6G16   30.15R
BLUEFIELD      CLOUDY    35  25  66 NW14G22   30.07R
LEWISBURG      CLOUDY    37  29  74 NW12G17   30.06R
$$

WVZ047-191900-
Northern Mountains of West Virginia

CITY           SKY/WX    TMP DP  RH WIND       PRES   REMARKS
ELKINS         LGT RAIN  38  34  85 W12       30.02R
$$

WVZ052-191900-
Eastern Panhandle of West Virginia

CITY           SKY/WX    TMP DP  RH WIND       PRES   REMARKS
MARTINSBURG    CLOUDY    47  29  49 NW16G25   29.91R
PETERSBURG     CLOUDY    43  32  64 NW10G20   29.99R
$$



USA.gov is the U.S. government's official web portal to all federal, state and local government web resources and services.